Weather History for Huntingburg, IN

Change the Weather History Date:

Monday, October 15, 2012

  Actual Average Record
Temperature  
Mean Temperature 55 °F -  
Max Temperature 64 °F 65 °F 84 °F (2008)
Min Temperature 46 °F 45 °F 30 °F (2006)
Degree Days  
Heating Degree Days 10    
Growing Degree Days 5 (Base 50)    
Moisture  
Dew Point 42 °F    
Average Humidity 57    
Maximum Humidity 82    
Minimum Humidity 42    
Precipitation  
Precipitation 0.00 in - - ()
Sea Level Pressure  
Sea Level Pressure 29.99 in    
Wind  
Wind Speed 9 mph (NW)    
Max Wind Speed 14 mph    
Max Gust Speed 22 mph    
Visibility 10 miles    
Events      
Averages and records for this station are not official NWS values.
T = Trace of Precipitation, MM = Missing Value Source: NWS Daily Summary

Daily Weather History Graph

Daily Weather History Graph

Search for Another Location

Airport:

Trip Planner

Search our weather history database for the weather conditions in past years. The results will help you decide how hot, cold, wet, or windy it might be!

Date:

Astronomy

Oct. 15, 2012 Rise Set
Actual Time 7:57 AM EDT 7:09 PM EDT
Civil Twilight 7:30 AM EDT 7:35 PM EDT
Nautical Twilight 6:59 AM EDT 8:06 PM EDT
Astronomical Twilight 6:29 AM EDT 8:36 PM EDT
Moon 8:06 AM EDT (10/15) 7:09 PM EDT (10/15)
Length of Visible Light 12h 05m
Length of Day
11h 12m
New Moon, 0% of the Moon is Illuminated
Oct 15
New Moon
Oct 21
First Quarter
Oct 29
Full
Nov 6
Last Quarter
Nov 13
New

Hourly Weather History & Observations

Time (EDT) Temp. Dew Point Humidity Pressure Visibility Wind Dir Wind Speed Gust Speed Precip Events Conditions
10:15 AM 55.4 °F 48.2 °F 77% 29.99 in 10.0 mi WNW 10.4 mph - N/A   Clear
10:35 AM 55.4 °F 48.2 °F 77% 29.99 in 10.0 mi NW 12.7 mph - N/A   Clear
10:55 AM 57.2 °F 46.4 °F 67% 29.99 in 10.0 mi WNW 10.4 mph - N/A   Partly Cloudy
11:15 AM 57.2 °F 44.6 °F 63% 30.00 in 10.0 mi WNW 11.5 mph - N/A   Partly Cloudy
11:35 AM 59.0 °F 44.6 °F 59% 30.00 in 10.0 mi WNW 12.7 mph 16.1 mph N/A   Clear
11:55 AM 59.0 °F 42.8 °F 55% 30.00 in 10.0 mi NW 12.7 mph - N/A   Clear
12:15 PM 60.8 °F 42.8 °F 52% 30.00 in 10.0 mi WNW 13.8 mph 18.4 mph N/A   Clear
12:35 PM 60.8 °F 41.0 °F 48% 30.00 in 10.0 mi NNW 11.5 mph 17.3 mph N/A   Clear
12:55 PM 60.8 °F 41.0 °F 48% 30.00 in 10.0 mi NW 12.7 mph 21.9 mph N/A   Clear
1:15 PM 62.6 °F 42.8 °F 48% 30.00 in 10.0 mi WNW 10.4 mph 18.4 mph N/A   Clear
1:35 PM 62.6 °F 42.8 °F 48% 30.00 in 10.0 mi NW 10.4 mph 21.9 mph N/A   Partly Cloudy
1:55 PM 62.6 °F 42.8 °F 48% 30.00 in 10.0 mi NW 11.5 mph 20.7 mph N/A   Clear
2:15 PM 62.6 °F 42.8 °F 48% 29.99 in 10.0 mi NW 10.4 mph 16.1 mph N/A   Clear
2:35 PM 62.6 °F 42.8 °F 48% 29.98 in 10.0 mi NNW 9.2 mph 20.7 mph N/A   Partly Cloudy
2:55 PM 62.6 °F 42.8 °F 48% 29.98 in 10.0 mi NW 12.7 mph 17.3 mph N/A   Partly Cloudy
3:15 PM 62.6 °F 41.0 °F 45% 29.98 in 10.0 mi WNW 6.9 mph 18.4 mph N/A   Partly Cloudy
3:35 PM 64.4 °F 41.0 °F 42% 29.97 in 10.0 mi North 12.7 mph 19.6 mph N/A   Clear
3:55 PM 64.4 °F 42.8 °F 45% 29.98 in 10.0 mi NW 12.7 mph 17.3 mph N/A   Clear
4:15 PM 62.6 °F 41.0 °F 45% 29.98 in 10.0 mi NNW 9.2 mph 18.4 mph N/A   Clear
4:35 PM 64.4 °F 42.8 °F 45% 29.98 in 10.0 mi NW 8.1 mph 17.3 mph N/A   Clear
5:15 PM 62.6 °F 41.0 °F 45% 29.98 in 10.0 mi WNW 11.5 mph 17.3 mph N/A   Partly Cloudy
5:35 PM 62.6 °F 41.0 °F 45% 29.98 in 10.0 mi NW 8.1 mph - N/A   Clear
5:55 PM 62.6 °F 41.0 °F 45% 29.98 in 10.0 mi WNW 11.5 mph - N/A   Clear
6:15 PM 62.6 °F 39.2 °F 42% 29.98 in 10.0 mi NW 8.1 mph - N/A   Clear
6:35 PM 60.8 °F 39.2 °F 45% 29.98 in 10.0 mi NW 6.9 mph - N/A   Clear
6:55 PM 59.0 °F 39.2 °F 48% 29.98 in 10.0 mi WNW 5.8 mph - N/A   Clear
7:15 PM 57.2 °F 39.2 °F 51% 29.97 in 10.0 mi NW 3.5 mph - N/A   Clear
7:35 PM 57.2 °F 39.2 °F 51% 29.98 in 10.0 mi Calm Calm - N/A   Clear
7:55 PM 55.4 °F 39.2 °F 54% 29.98 in 10.0 mi Calm Calm - N/A   Clear
8:15 PM 55.4 °F 39.2 °F 54% 29.98 in 10.0 mi Calm Calm - N/A   Clear
8:35 PM 53.6 °F 39.2 °F 58% 29.98 in 10.0 mi Calm Calm - N/A   Clear
8:55 PM 51.8 °F 41.0 °F 67% 29.98 in 10.0 mi Calm Calm - N/A   Clear
9:15 PM 51.8 °F 41.0 °F 67% 29.98 in 10.0 mi Calm Calm - N/A   Clear
9:35 PM 50.0 °F 41.0 °F 71% 29.98 in 10.0 mi Calm Calm - N/A   Clear
9:55 PM 48.2 °F 41.0 °F 76% 29.99 in 10.0 mi Calm Calm - N/A   Clear
10:15 PM 46.4 °F 39.2 °F 76% 29.99 in 10.0 mi Calm Calm - N/A   Clear
10:35 PM 48.2 °F 42.8 °F 82% 30.00 in 10.0 mi Calm Calm - N/A   Clear
10:55 PM 46.4 °F 41.0 °F 81% 30.00 in 10.0 mi Calm Calm - N/A   Clear
11:15 PM 46.4 °F 41.0 °F 81% 30.00 in 10.0 mi Calm Calm - N/A   Clear
11:35 PM 46.4 °F 41.0 °F 81% 30.00 in 10.0 mi Calm Calm - N/A   Clear
11:55 PM 46.4 °F 41.0 °F 81% 30.00 in 10.0 mi Calm Calm - N/A   Clear